TimeAST,TemperatureF,Dew PointF,Humidity,Sea Level PressureIn,VisibilityMPH,Wind Direction,Wind SpeedMPH,Gust SpeedMPH,PrecipitationIn,Events,Conditions,WindDirDegrees,DateUTC
12:00 AM,77.0,68.0,74,30.01,6.2,East,11.5,-,N/A,,Scattered Clouds,100,2013-02-21 04:00:00
1:00 AM,77.0,68.0,74,30.01,6.2,East,11.5,-,N/A,,Scattered Clouds,100,2013-02-21 05:00:00
2:00 AM,77,68,67,30.00,16,ESE,11.5,,,,Partly Cloudy,110,2013-02-21 06:00:00
2:00 AM,77.0,68.0,74,9999.90,6.2,ESE,11.5,-,N/A,,Scattered Clouds,110,2013-02-21 06:00:00
3:00 AM,77.0,68.0,74,29.98,6.2,East,11.5,-,N/A,,Partly Cloudy,100,2013-02-21 07:00:00
4:00 AM,77.0,68.0,74,29.98,6.2,ESE,11.5,-,N/A,,Scattered Clouds,110,2013-02-21 08:00:00
5:00 AM,77,68,66,29.99,9,SE,10.4,,,,Mostly Cloudy,130,2013-02-21 09:00:00
5:00 AM,77.0,68.0,74,29.98,6.2,SE,10.4,-,N/A,,Mostly Cloudy,130,2013-02-21 09:00:00
6:00 AM,77.0,68.0,74,30.01,6.2,ESE,12.7,-,N/A,,Partly Cloudy,120,2013-02-21 10:00:00
7:00 AM,77.0,68.0,74,30.04,6.2,ESE,11.5,-,N/A,,Partly Cloudy,120,2013-02-21 11:00:00
8:00 AM,78,68,65,30.04,22,ESE,11.5,,,,Partly Cloudy,120,2013-02-21 12:00:00
8:00 AM,78.8,68.0,69,30.04,6.2,ESE,10.4,-,N/A,,Partly Cloudy,110,2013-02-21 12:00:00
9:00 AM,80.6,68.0,65,30.04,6.2,ESE,11.5,-,N/A,,Scattered Clouds,110,2013-02-21 13:00:00
10:00 AM,80.6,68.0,65,30.06,6.2,East,11.5,-,N/A,,Mostly Cloudy,100,2013-02-21 14:00:00
11:00 AM,81,67,53,30.07,16,East,17.3,,,Rain,Light Rain Showers,100,2013-02-21 15:00:00
11:00 AM,80.6,68.0,65,30.06,6.2,East,16.1,-,N/A,,Mostly Cloudy,90,2013-02-21 15:00:00
12:00 PM,82.4,66.2,58,30.04,6.2,East,12.7,-,N/A,,Scattered Clouds,100,2013-02-21 16:00:00
1:00 PM,82.4,60.8,48,30.01,6.2,ESE,13.8,-,N/A,,Partly Cloudy,110,2013-02-21 17:00:00
2:00 PM,84,62,38,30.01,31,East,10.4,,,,Partly Cloudy,90,2013-02-21 18:00:00
2:00 PM,84.2,62.6,48,30.01,6.2,East,10.4,-,N/A,,Partly Cloudy,90,2013-02-21 18:00:00
3:00 PM,82.4,62.6,51,29.98,6.2,ESE,11.5,-,N/A,,Partly Cloudy,110,2013-02-21 19:00:00
4:00 PM,80.6,66.2,61,29.98,6.2,ESE,11.5,-,N/A,,Partly Cloudy,110,2013-02-21 20:00:00
5:00 PM,81,66,52,29.98,31,East,12.7,,,,Scattered Clouds,80,2013-02-21 21:00:00
5:00 PM,80.6,66.2,61,29.98,6.2,East,12.7,-,N/A,,Partly Cloudy,80,2013-02-21 21:00:00
6:00 PM,77.0,66.2,69,29.98,6.2,East,9.2,-,N/A,,Partly Cloudy,100,2013-02-21 22:00:00
8:00 PM,77,67,65,30.01,25,East,10.4,,,,Scattered Clouds,90,2013-02-22 00:00:00
8:00 PM,77.0,68.0,74,30.01,6.2,East,10.4,-,N/A,,Partly Cloudy,90,2013-02-22 00:00:00
9:00 PM,77.0,68.0,74,30.01,6.2,East,10.4,-,N/A,,Partly Cloudy,90,2013-02-22 01:00:00
10:00 PM,77.0,68.0,74,30.04,6.2,East,11.5,-,N/A,,Scattered Clouds,80,2013-02-22 02:00:00
11:00 PM,77.0,68.0,74,30.04,6.2,East,10.4,-,N/A,,Partly Cloudy,100,2013-02-22 03:00:00